START_TIME,STEP,MOV.,M34,t_acc.,L5,t_acc.,L18,t_acc.,L14,t_acc.
1979-07-17 00:00:24.730 ,0,0,0.,12.0,0.,12.0,0.,12.0,0.,12.0
1979-07-17 00:00:36.730 ,0,0,0.,12.0,0.,12.0,0.,12.0,0.,12.0
1979-07-17 00:00:48.730 ,1,1,0.,12.0,0.,12.0,0.,12.0,0.,12.0
1979-07-17 00:01:00.730 ,1,1,0.,12.0,0.,12.0,0.,12.0,0.,12.0
1979-07-17 00:01:12.730 ,1,0,0.,12.0,0.,12.0,0.,12.0,0.,12.0
1979-07-17 00:01:24.730 ,1,0,0.,12.0,0.,12.0,0.,12.0,0.,12.0
1979-07-17 00:01:36.730 ,2,1,0.,12.0,0.,12.0,0.,12.0,0.,12.0
1979-07-17 00:01:48.730 ,2,1,0.,12.0,0.,12.0,0.,12.0,0.,12.0
1979-07-17 00:02:00.730 ,2,0,1.,12.0,0.,12.0,0.,12.0,0.,12.0
1979-07-17 00:02:12.730 ,2,0,2.,12.0,0.,12.0,0.,12.0,0.,12.0
1979-07-17 00:02:24.730 ,3,1,2.,12.0,0.,12.0,0.,12.0,0.,12.0
1979-07-17 00:02:36.730 ,3,1,0.,12.0,0.,12.0,0.,12.0,0.,12.0
1979-07-17 00:02:48.730 ,3,0,0.,12.0,0.,12.0,0.,12.0,0.,12.0
1979-07-17 00:03:00.730 ,3,0,1.,12.0,0.,12.0,0.,12.0,0.,12.0
1979-07-17 00:03:12.730 ,4,1,1.,12.0,0.,12.0,0.,12.0,0.,12.0
1979-07-17 00:03:24.730 ,4,1,0.,12.0,0.,12.0,0.,12.0,0.,12.0
1979-07-17 00:03:36.730 ,4,0,0.,12.0,0.,12.0,0.,12.0,0.,12.0
1979-07-17 00:03:48.730 ,4,0,0.,12.0,0.,12.0,0.,12.0,0.,12.0
1979-07-17 00:04:00.730 ,5,1,0.,12.0,0.,12.0,0.,12.0,0.,12.0
1979-07-17 00:04:12.730 ,5,1,1.,12.0,0.,12.0,0.,12.0,0.,12.0
1979-07-17 00:04:24.730 ,5,0,0.,12.0,0.,12.0,0.,12.0,0.,12.0
1979-07-17 00:04:36.730 ,5,0,1.,12.0,0.,12.0,0.,12.0,0.,12.0
1979-07-17 00:04:48.730 ,6,1,0.,12.0,0.,12.0,0.,12.0,0.,12.0
1979-07-17 00:05:00.730 ,6,1,0.,12.0,0.,12.0,0.,12.0,0.,12.0
1979-07-17 00:05:12.730 ,6,0,0.,12.0,0.,12.0,0.,12.0,0.,12.0
1979-07-17 00:05:24.730 ,6,0,0.,12.0,0.,12.0,0.,12.0,0.,12.0
1979-07-17 00:05:36.730 ,7,1,1.,12.0,0.,12.0,0.,12.0,0.,12.0
1979-07-17 00:05:48.730 ,7,1,0.,12.0,0.,12.0,0.,12.0,0.,12.0
1979-07-17 00:06:00.730 ,7,0,0.,12.0,0.,12.0,0.,12.0,0.,12.0
1979-07-17 00:06:12.730 ,7,0,0.,12.0,0.,12.0,0.,12.0,0.,12.0
1979-07-17 00:06:24.730 ,7,1,0.,12.0,0.,12.0,0.,12.0,0.,12.0
1979-07-17 00:06:36.730 ,7,1,0.,12.0,0.,12.0,0.,12.0,0.,12.0
1979-07-17 00:06:48.730 ,7,0,0.,12.0,0.,12.0,0.,12.0,0.,12.0
1979-07-17 00:07:00.730 ,7,0,0.,12.0,0.,12.0,0.,12.0,0.,12.0
1979-07-17 00:07:12.730 ,0,0,0.,12.0,0.,12.0,0.,12.0,0.,12.0
1979-07-17 00:07:24.730 ,0,0,0.,12.0,0.,12.0,0.,12.0,0.,12.0
1979-07-17 00:07:36.730 ,0,0,,0,,0,,0,,0
1979-07-17 00:07:48.730 ,0,0,,0,,0,,0,,0
1979-07-17 00:07:36.730 ,6,0,0.,12.0,0.,12.0,0.,12.0,0.,12.0
1979-07-17 00:07:48.730 ,6,0,0.,12.0,0.,12.0,0.,12.0,0.,12.0
1979-07-17 00:08:00.730 ,5,1,0.,12.0,0.,12.0,0.,12.0,0.,12.0
1979-07-17 00:08:12.730 ,5,1,0.,12.0,0.,12.0,0.,12.0,0.,12.0
1979-07-17 00:08:24.730 ,5,0,0.,12.0,0.,12.0,0.,12.0,1.,12.0
1979-07-17 00:08:36.730 ,5,0,0.,12.0,0.,12.0,0.,12.0,0.,12.0
1979-07-17 00:08:48.730 ,4,1,0.,12.0,0.,12.0,0.,12.0,0.,12.0
1979-07-17 00:09:00.730 ,4,1,0.,12.0,0.,12.0,0.,12.0,0.,12.0
1979-07-17 00:09:12.730 ,4,0,0.,12.0,0.,12.0,0.,12.0,0.,12.0
1979-07-17 00:09:24.730 ,4,0,0.,12.0,0.,12.0,0.,12.0,0.,12.0
1979-07-17 00:09:36.730 ,3,1,1.,12.0,0.,12.0,0.,12.0,0.,12.0
1979-07-17 00:09:48.730 ,3,1,0.,12.0,0.,12.0,0.,12.0,0.,12.0
1979-07-17 00:10:00.730 ,3,0,0.,12.0,0.,12.0,0.,12.0,0.,12.0
1979-07-17 00:10:12.730 ,3,0,0.,12.0,0.,12.0,0.,12.0,0.,12.0
1979-07-17 00:10:24.730 ,2,1,1.,12.0,0.,12.0,0.,12.0,0.,12.0
1979-07-17 00:10:36.730 ,2,1,0.,12.0,0.,12.0,0.,12.0,0.,12.0
1979-07-17 00:10:48.730 ,2,0,0.,12.0,0.,12.0,0.,12.0,0.,12.0
1979-07-17 00:11:00.730 ,2,0,0.,12.0,0.,12.0,0.,12.0,0.,12.0
1979-07-17 00:11:12.730 ,1,1,0.,12.0,0.,12.0,0.,12.0,0.,12.0
1979-07-17 00:11:24.730 ,1,1,0.,12.0,0.,12.0,0.,12.0,0.,12.0
1979-07-17 00:11:36.730 ,1,0,1.,12.0,0.,12.0,0.,12.0,0.,12.0
1979-07-17 00:11:48.730 ,1,0,0.,12.0,0.,12.0,0.,12.0,0.,12.0
1979-07-17 00:12:00.730 ,0,1,0.,12.0,0.,12.0,0.,12.0,0.,12.0
1979-07-17 00:12:12.730 ,0,1,1.,12.0,0.,12.0,0.,12.0,0.,12.0
1979-07-17 00:12:24.730 ,0,0,0.,12.0,0.,12.0,0.,12.0,0.,12.0
1979-07-17 00:12:36.730 ,0,0,0.,12.0,0.,12.0,0.,12.0,0.,12.0
1979-07-17 00:12:48.730 ,0,1,0.,12.0,0.,12.0,0.,12.0,1.,12.0
1979-07-17 00:13:00.730 ,0,1,0.,12.0,0.,12.0,0.,12.0,0.,12.0
1979-07-17 00:13:12.730 ,0,0,0.,12.0,0.,12.0,0.,12.0,0.,12.0
1979-07-17 00:13:24.730 ,0,0,0.,12.0,0.,12.0,0.,12.0,0.,12.0
1979-07-17 00:13:36.730 ,1,1,0.,12.0,0.,12.0,0.,12.0,0.,12.0
1979-07-17 00:13:48.730 ,1,1,0.,12.0,0.,12.0,0.,12.0,0.,12.0
1979-07-17 00:14:00.730 ,1,0,0.,12.0,0.,12.0,0.,12.0,0.,12.0
1979-07-17 00:14:12.730 ,1,0,0.,12.0,0.,12.0,0.,12.0,0.,12.0
1979-07-17 00:14:24.730 ,2,1,0.,12.0,0.,12.0,0.,12.0,0.,12.0
1979-07-17 00:14:36.730 ,2,1,0.,12.0,0.,12.0,0.,12.0,0.,12.0
1979-07-17 00:14:48.730 ,2,0,0.,12.0,0.,12.0,0.,12.0,0.,12.0
1979-07-17 00:15:00.730 ,2,0,0.,12.0,0.,12.0,0.,12.0,0.,12.0
1979-07-17 00:15:12.730 ,3,1,0.,12.0,0.,12.0,0.,12.0,0.,12.0
1979-07-17 00:15:24.730 ,3,1,0.,12.0,0.,12.0,0.,12.0,0.,12.0
1979-07-17 00:15:36.730 ,3,0,0.,12.0,0.,12.0,0.,12.0,0.,12.0
1979-07-17 00:15:48.730 ,3,0,0.,12.0,0.,12.0,0.,12.0,0.,12.0
1979-07-17 00:16:00.730 ,4,1,1.,12.0,0.,12.0,0.,12.0,0.,12.0
1979-07-17 00:16:12.730 ,4,1,0.,12.0,0.,12.0,0.,12.0,0.,12.0
1979-07-17 00:16:24.730 ,4,0,0.,12.0,0.,12.0,0.,12.0,0.,12.0
1979-07-17 00:16:36.730 ,4,0,0.,12.0,0.,12.0,0.,12.0,0.,12.0
1979-07-17 00:16:48.730 ,5,1,0.,12.0,0.,12.0,0.,12.0,0.,12.0
1979-07-17 00:17:00.730 ,5,1,0.,12.0,0.,12.0,0.,12.0,0.,12.0
1979-07-17 00:17:12.730 ,5,0,0.,12.0,0.,12.0,0.,12.0,0.,12.0
1979-07-17 00:17:24.730 ,5,0,0.,12.0,0.,12.0,0.,12.0,0.,12.0
1979-07-17 00:17:36.730 ,6,1,0.,12.0,0.,12.0,0.,12.0,0.,12.0
1979-07-17 00:17:48.730 ,6,1,0.,12.0,0.,12.0,0.,12.0,0.,12.0
1979-07-17 00:18:00.730 ,6,0,0.,12.0,0.,12.0,0.,12.0,0.,12.0
1979-07-17 00:18:12.730 ,6,0,0.,12.0,0.,12.0,0.,12.0,0.,12.0
1979-07-17 00:18:24.730 ,7,0,1.,12.0,0.,12.0,0.,12.0,0.,12.0
1979-07-17 00:18:36.730 ,7,0,0.,12.0,0.,12.0,0.,12.0,0.,12.0
1979-07-17 00:18:48.730 ,7,0,0.,12.0,0.,12.0,0.,12.0,0.,12.0
1979-07-17 00:19:00.730 ,7,0,0.,12.0,0.,12.0,0.,12.0,0.,12.0
1979-07-17 00:19:12.730 ,4,1,0.,12.0,0.,12.0,0.,12.0,0.,12.0
1979-07-17 00:19:24.730 ,4,1,0.,12.0,0.,12.0,0.,12.0,0.,12.0
1979-07-17 00:19:36.730 ,0,1,0.,12.0,0.,12.0,0.,12.0,0.,12.0
1979-07-17 00:19:48.730 ,0,1,0.,12.0,0.,12.0,0.,12.0,0.,12.0
1979-07-17 00:20:00.730 ,3,1,0.,12.0,0.,12.0,0.,12.0,0.,12.0
1979-07-17 00:20:12.730 ,3,1,0.,12.0,0.,12.0,0.,12.0,0.,12.0
1979-07-17 00:20:24.730 ,7,1,0.,12.0,0.,12.0,0.,12.0,0.,12.0
1979-07-17 00:20:36.730 ,7,1,0.,12.0,0.,12.0,0.,12.0,0.,12.0
1979-07-17 00:20:48.730 ,4,1,0.,12.0,0.,12.0,0.,12.0,0.,12.0
1979-07-17 00:21:00.730 ,4,1,1.,12.0,0.,12.0,0.,12.0,0.,12.0
1979-07-17 00:21:12.730 ,0,1,0.,12.0,0.,12.0,0.,12.0,0.,12.0
1979-07-17 00:21:24.730 ,0,1,0.,12.0,0.,12.0,0.,12.0,0.,12.0
1979-07-17 00:21:36.730 ,3,1,0.,12.0,0.,12.0,0.,12.0,0.,12.0
1979-07-17 00:21:48.730 ,3,1,0.,12.0,0.,12.0,0.,12.0,0.,12.0
1979-07-17 00:22:00.730 ,7,1,0.,12.0,0.,12.0,0.,12.0,0.,12.0
1979-07-17 00:22:12.730 ,7,1,0.,12.0,0.,12.0,0.,12.0,0.,12.0
1979-07-17 00:22:24.730 ,4,1,0.,12.0,0.,12.0,0.,12.0,0.,12.0
1979-07-17 00:22:36.730 ,4,1,0.,12.0,0.,12.0,0.,12.0,0.,12.0
1979-07-17 00:22:48.730 ,0,1,0.,12.0,0.,12.0,0.,12.0,0.,12.0
1979-07-17 00:23:00.730 ,0,1,0.,12.0,0.,12.0,0.,12.0,0.,12.0
1979-07-17 00:23:12.730 ,3,1,1.,12.0,0.,12.0,0.,12.0,0.,12.0
1979-07-17 00:23:24.730 ,3,1,0.,12.0,0.,12.0,0.,12.0,0.,12.0
1979-07-17 00:23:36.730 ,7,1,0.,12.0,0.,12.0,0.,12.0,0.,12.0
1979-07-17 00:23:48.730 ,7,1,0.,12.0,0.,12.0,0.,12.0,0.,12.0
1979-07-17 00:24:00.730 ,4,1,0.,12.0,0.,12.0,0.,12.0,0.,12.0
1979-07-17 00:24:12.730 ,4,1,0.,12.0,0.,12.0,0.,12.0,0.,12.0
1979-07-17 00:24:24.730 ,0,1,1.,12.0,0.,12.0,0.,12.0,0.,12.0
1979-07-17 00:24:36.730 ,0,1,0.,12.0,0.,12.0,0.,12.0,0.,12.0
1979-07-17 00:24:48.730 ,3,1,0.,12.0,0.,12.0,0.,12.0,0.,12.0
1979-07-17 00:25:00.730 ,3,1,0.,12.0,0.,12.0,0.,12.0,0.,12.0
1979-07-17 00:25:12.730 ,7,1,1.,12.0,0.,12.0,0.,12.0,0.,12.0
1979-07-17 00:25:24.730 ,7,1,0.,12.0,0.,12.0,0.,12.0,0.,12.0
1979-07-17 00:25:36.730 ,4,1,0.,12.0,0.,12.0,0.,12.0,0.,12.0
1979-07-17 00:25:48.730 ,4,1,0.,12.0,0.,12.0,0.,12.0,0.,12.0
1979-07-17 00:26:00.730 ,0,1,0.,12.0,0.,12.0,0.,12.0,0.,12.0
1979-07-17 00:26:12.730 ,0,1,0.,12.0,0.,12.0,0.,12.0,0.,12.0
1979-07-17 00:26:24.730 ,3,1,0.,12.0,0.,12.0,0.,12.0,0.,12.0
1979-07-17 00:26:36.730 ,3,1,0.,12.0,0.,12.0,0.,12.0,0.,12.0
1979-07-17 00:26:48.730 ,7,1,1.,12.0,0.,12.0,0.,12.0,0.,12.0
1979-07-17 00:27:00.730 ,7,1,0.,12.0,0.,12.0,0.,12.0,0.,12.0
1979-07-17 00:27:12.730 ,4,1,0.,12.0,0.,12.0,0.,12.0,0.,12.0
1979-07-17 00:27:24.730 ,4,1,0.,12.0,0.,12.0,0.,12.0,0.,12.0
1979-07-17 00:27:36.730 ,0,1,0.,12.0,0.,12.0,0.,12.0,0.,12.0
1979-07-17 00:27:48.730 ,0,1,1.,12.0,0.,12.0,0.,12.0,0.,12.0
1979-07-17 00:28:00.730 ,3,1,0.,12.0,0.,12.0,0.,12.0,0.,12.0
1979-07-17 00:28:12.730 ,3,1,0.,12.0,0.,12.0,0.,12.0,0.,12.0
1979-07-17 00:28:24.730 ,7,1,1.,12.0,0.,12.0,0.,12.0,0.,12.0
1979-07-17 00:28:36.730 ,7,1,0.,12.0,0.,12.0,0.,12.0,0.,12.0
1979-07-17 00:28:48.730 ,4,1,0.,12.0,0.,12.0,0.,12.0,0.,12.0
1979-07-17 00:29:00.730 ,4,1,0.,12.0,0.,12.0,0.,12.0,1.,12.0
1979-07-17 00:29:12.730 ,0,1,0.,12.0,0.,12.0,0.,12.0,0.,12.0
1979-07-17 00:29:24.730 ,0,1,1.,12.0,0.,12.0,0.,12.0,0.,12.0
1979-07-17 00:29:36.730 ,0,0,0.,12.0,0.,12.0,0.,12.0,0.,12.0
1979-07-17 00:29:48.730 ,0,0,0.,12.0,0.,12.0,0.,12.0,0.,12.0
1979-07-17 00:30:00.730 ,0,0,0.,12.0,0.,12.0,0.,12.0,0.,12.0
1979-07-17 00:30:12.730 ,0,0,0.,12.0,0.,12.0,0.,12.0,0.,12.0
1979-07-17 00:30:24.730 ,5,1,0.,12.0,0.,12.0,0.,12.0,0.,12.0
1979-07-17 00:30:36.730 ,5,1,0.,12.0,0.,12.0,0.,12.0,0.,12.0
1979-07-17 00:30:48.730 ,5,0,0.,12.0,0.,12.0,0.,12.0,0.,12.0
1979-07-17 00:31:00.730 ,5,0,1.,12.0,0.,12.0,0.,12.0,0.,12.0
1979-07-17 00:31:12.730 ,4,1,0.,12.0,0.,12.0,0.,12.0,0.,12.0
1979-07-17 00:31:24.730 ,4,1,0.,12.0,0.,12.0,0.,12.0,0.,12.0
1979-07-17 00:31:36.730 ,4,0,0.,12.0,0.,12.0,0.,12.0,0.,12.0
1979-07-17 00:31:48.730 ,4,0,0.,12.0,0.,12.0,0.,12.0,0.,12.0
1979-07-17 00:32:00.730 ,3,1,0.,12.0,0.,12.0,0.,12.0,0.,12.0
1979-07-17 00:32:12.730 ,3,1,0.,12.0,0.,12.0,0.,12.0,0.,12.0
1979-07-17 00:32:24.730 ,3,0,0.,12.0,0.,12.0,0.,12.0,0.,12.0
1979-07-17 00:32:36.730 ,3,0,0.,12.0,0.,12.0,0.,12.0,0.,12.0
1979-07-17 00:32:48.730 ,2,1,0.,12.0,0.,12.0,0.,12.0,0.,12.0
1979-07-17 00:33:00.730 ,2,1,2.,12.0,0.,12.0,0.,12.0,0.,12.0
1979-07-17 00:33:12.730 ,2,0,0.,12.0,0.,12.0,0.,12.0,0.,12.0
1979-07-17 00:33:24.730 ,2,0,1.,12.0,0.,12.0,0.,12.0,0.,12.0
1979-07-17 00:33:36.730 ,1,1,1.,12.0,0.,12.0,0.,12.0,0.,12.0
1979-07-17 00:33:48.730 ,1,1,2.,12.0,0.,12.0,0.,12.0,0.,12.0
1979-07-17 00:34:00.730 ,1,0,0.,12.0,0.,12.0,0.,12.0,0.,12.0
1979-07-17 00:34:12.730 ,1,0,1.,12.0,0.,12.0,0.,12.0,0.,12.0
1979-07-17 00:34:24.730 ,0,1,0.,12.0,0.,12.0,0.,12.0,0.,12.0
1979-07-17 00:34:36.730 ,0,1,0.,12.0,0.,12.0,0.,12.0,0.,12.0
1979-07-17 00:34:48.730 ,0,0,0.,12.0,0.,12.0,0.,12.0,0.,12.0
1979-07-17 00:35:00.730 ,0,0,0.,12.0,0.,12.0,0.,12.0,0.,12.0
1979-07-17 00:35:12.730 ,0,1,0.,12.0,0.,12.0,0.,12.0,0.,12.0
1979-07-17 00:35:24.730 ,0,1,0.,12.0,0.,12.0,0.,12.0,0.,12.0
1979-07-17 00:35:36.730 ,0,0,0.,12.0,0.,12.0,0.,12.0,0.,12.0
1979-07-17 00:35:48.730 ,0,0,0.,12.0,0.,12.0,0.,12.0,0.,12.0
1979-07-17 00:36:00.730 ,1,1,0.,12.0,0.,12.0,0.,12.0,0.,12.0
1979-07-17 00:36:12.730 ,1,1,0.,12.0,0.,12.0,0.,12.0,0.,12.0
1979-07-17 00:36:24.730 ,1,0,0.,12.0,0.,12.0,0.,12.0,0.,12.0
1979-07-17 00:36:36.730 ,1,0,0.,12.0,0.,12.0,0.,12.0,0.,12.0
1979-07-17 00:36:48.730 ,2,1,0.,12.0,0.,12.0,0.,12.0,0.,12.0
1979-07-17 00:37:00.730 ,2,1,1.,12.0,0.,12.0,0.,12.0,0.,12.0
1979-07-17 00:37:12.730 ,2,0,0.,12.0,0.,12.0,0.,12.0,0.,12.0
1979-07-17 00:37:24.730 ,2,0,1.,12.0,0.,12.0,0.,12.0,0.,12.0
1979-07-17 00:37:36.730 ,3,1,1.,12.0,0.,12.0,0.,12.0,0.,12.0
1979-07-17 00:37:48.730 ,3,1,1.,12.0,0.,12.0,0.,12.0,0.,12.0
1979-07-17 00:38:00.730 ,3,0,0.,12.0,0.,12.0,0.,12.0,0.,12.0
1979-07-17 00:38:12.730 ,3,0,0.,12.0,0.,12.0,0.,12.0,0.,12.0
1979-07-17 00:38:24.730 ,4,1,0.,12.0,0.,12.0,0.,12.0,0.,12.0
1979-07-17 00:38:36.730 ,4,1,1.,12.0,0.,12.0,0.,12.0,0.,12.0
1979-07-17 00:38:48.730 ,4,0,0.,12.0,0.,12.0,0.,12.0,0.,12.0
1979-07-17 00:39:00.730 ,4,0,0.,12.0,0.,12.0,0.,12.0,1.,12.0
1979-07-17 00:39:12.730 ,5,1,0.,12.0,0.,12.0,0.,12.0,0.,12.0
1979-07-17 00:39:24.730 ,5,1,0.,12.0,0.,12.0,0.,12.0,0.,12.0
1979-07-17 00:39:36.730 ,5,0,0.,12.0,0.,12.0,0.,12.0,0.,12.0
1979-07-17 00:39:48.730 ,5,0,1.,12.0,0.,12.0,0.,12.0,0.,12.0
1979-07-17 00:40:00.730 ,6,1,0.,12.0,0.,12.0,0.,12.0,0.,12.0
1979-07-17 00:40:12.730 ,6,1,0.,12.0,0.,12.0,0.,12.0,0.,12.0
1979-07-17 00:40:24.730 ,6,0,0.,12.0,0.,12.0,0.,12.0,0.,12.0
1979-07-17 00:40:36.730 ,6,0,0.,12.0,0.,12.0,0.,12.0,0.,12.0
1979-07-17 00:40:48.730 ,7,1,0.,12.0,0.,12.0,0.,12.0,0.,12.0
1979-07-17 00:41:00.730 ,7,1,1.,12.0,0.,12.0,0.,12.0,0.,12.0
1979-07-17 00:41:12.730 ,7,0,0.,12.0,0.,12.0,0.,12.0,0.,12.0
1979-07-17 00:41:24.730 ,7,0,0.,12.0,0.,12.0,0.,12.0,0.,12.0
1979-07-17 00:41:36.730 ,7,1,0.,12.0,0.,12.0,0.,12.0,0.,12.0
1979-07-17 00:41:48.730 ,7,1,0.,12.0,0.,12.0,0.,12.0,0.,12.0
1979-07-17 00:42:00.730 ,7,0,0.,12.0,0.,12.0,0.,12.0,0.,12.0
1979-07-17 00:42:12.730 ,7,0,0.,12.0,0.,12.0,0.,12.0,0.,12.0
1979-07-17 00:42:24.730 ,6,1,0.,12.0,0.,12.0,0.,12.0,0.,12.0
1979-07-17 00:42:36.730 ,6,1,0.,12.0,0.,12.0,0.,12.0,0.,12.0
1979-07-17 00:42:48.730 ,6,0,0.,12.0,0.,12.0,0.,12.0,0.,12.0
1979-07-17 00:43:00.730 ,6,0,0.,12.0,0.,12.0,0.,12.0,0.,12.0
1979-07-17 00:43:12.730 ,5,1,0.,12.0,0.,12.0,0.,12.0,0.,12.0
1979-07-17 00:43:24.730 ,5,1,0.,12.0,0.,12.0,0.,12.0,0.,12.0
1979-07-17 00:43:36.730 ,5,0,0.,12.0,0.,12.0,0.,12.0,0.,12.0
1979-07-17 00:43:48.730 ,5,0,0.,12.0,0.,12.0,0.,12.0,0.,12.0
1979-07-17 00:44:00.730 ,4,1,0.,12.0,0.,12.0,0.,12.0,0.,12.0
1979-07-17 00:44:12.730 ,4,1,0.,12.0,0.,12.0,0.,12.0,0.,12.0
1979-07-17 00:44:24.730 ,4,0,0.,12.0,0.,12.0,0.,12.0,0.,12.0
1979-07-17 00:44:36.730 ,4,0,0.,12.0,0.,12.0,0.,12.0,0.,12.0
1979-07-17 00:44:48.730 ,3,1,0.,12.0,0.,12.0,0.,12.0,0.,12.0
1979-07-17 00:45:00.730 ,3,1,0.,12.0,0.,12.0,0.,12.0,0.,12.0
1979-07-17 00:45:12.730 ,3,0,0.,12.0,0.,12.0,0.,12.0,0.,12.0
1979-07-17 00:45:24.730 ,3,0,1.,12.0,0.,12.0,0.,12.0,0.,12.0
1979-07-17 00:45:36.730 ,2,1,1.,12.0,0.,12.0,0.,12.0,0.,12.0
1979-07-17 00:45:48.730 ,2,1,1.,12.0,0.,12.0,0.,12.0,0.,12.0
1979-07-17 00:46:00.730 ,2,0,1.,12.0,0.,12.0,0.,12.0,0.,12.0
1979-07-17 00:46:12.730 ,2,0,0.,12.0,0.,12.0,0.,12.0,0.,12.0
1979-07-17 00:46:24.730 ,1,1,0.,12.0,0.,12.0,0.,12.0,0.,12.0
1979-07-17 00:46:36.730 ,1,1,0.,12.0,0.,12.0,0.,12.0,0.,12.0
1979-07-17 00:46:48.730 ,1,0,0.,12.0,0.,12.0,0.,12.0,0.,12.0
1979-07-17 00:47:00.730 ,1,0,1.,12.0,0.,12.0,0.,12.0,0.,12.0
1979-07-17 00:47:12.730 ,0,1,1.,12.0,0.,12.0,0.,12.0,0.,12.0
1979-07-17 00:47:24.730 ,0,1,0.,12.0,0.,12.0,0.,12.0,0.,12.0
1979-07-17 00:47:36.730 ,0,0,1.,12.0,0.,12.0,0.,12.0,0.,12.0
1979-07-17 00:47:48.730 ,0,0,0.,12.0,0.,12.0,0.,12.0,0.,12.0
1979-07-17 00:48:00.730 ,0,1,1.,12.0,0.,12.0,0.,12.0,0.,12.0
1979-07-17 00:48:12.730 ,0,1,0.,12.0,0.,12.0,0.,12.0,0.,12.0
1979-07-17 00:48:24.730 ,0,0,1.,12.0,0.,12.0,0.,12.0,0.,12.0
1979-07-17 00:48:36.730 ,0,0,0.,12.0,0.,12.0,0.,12.0,0.,12.0
1979-07-17 00:48:48.730 ,1,1,0.,12.0,0.,12.0,0.,12.0,0.,12.0
1979-07-17 00:49:00.730 ,1,1,0.,12.0,0.,12.0,0.,12.0,0.,12.0
1979-07-17 00:49:12.730 ,1,0,0.,12.0,0.,12.0,0.,12.0,0.,12.0
1979-07-17 00:49:24.730 ,1,0,0.,12.0,0.,12.0,0.,12.0,0.,12.0
1979-07-17 00:49:36.730 ,2,1,0.,12.0,0.,12.0,0.,12.0,0.,12.0
1979-07-17 00:49:48.730 ,2,1,0.,12.0,0.,12.0,0.,12.0,0.,12.0
1979-07-17 00:50:00.730 ,2,0,0.,12.0,0.,12.0,0.,12.0,0.,12.0
1979-07-17 00:50:12.730 ,2,0,0.,12.0,0.,12.0,0.,12.0,0.,12.0
1979-07-17 00:50:24.730 ,3,1,0.,12.0,0.,12.0,0.,12.0,0.,12.0
1979-07-17 00:50:36.730 ,3,1,0.,12.0,0.,12.0,0.,12.0,0.,12.0
1979-07-17 00:50:48.730 ,3,0,0.,12.0,0.,12.0,0.,12.0,0.,12.0
1979-07-17 00:51:00.730 ,3,0,0.,12.0,0.,12.0,0.,12.0,0.,12.0
1979-07-17 00:51:12.730 ,4,1,0.,12.0,0.,12.0,0.,12.0,0.,12.0
1979-07-17 00:51:24.730 ,4,1,0.,12.0,0.,12.0,0.,12.0,0.,12.0
1979-07-17 00:51:36.730 ,4,0,0.,12.0,0.,12.0,0.,12.0,0.,12.0
1979-07-17 00:51:48.730 ,4,0,1.,12.0,0.,12.0,0.,12.0,0.,12.0
1979-07-17 00:52:00.730 ,5,1,0.,12.0,0.,12.0,0.,12.0,0.,12.0
1979-07-17 00:52:12.730 ,5,1,0.,12.0,0.,12.0,0.,12.0,0.,12.0
1979-07-17 00:52:24.730 ,5,0,0.,12.0,0.,12.0,0.,12.0,0.,12.0
1979-07-17 00:52:36.730 ,5,0,0.,12.0,0.,12.0,0.,12.0,0.,12.0
1979-07-17 00:52:48.730 ,6,1,0.,12.0,0.,12.0,0.,12.0,0.,12.0
1979-07-17 00:53:00.730 ,6,1,0.,12.0,0.,12.0,0.,12.0,0.,12.0
1979-07-17 00:53:12.730 ,6,0,1.,12.0,0.,12.0,0.,12.0,0.,12.0
1979-07-17 00:53:24.730 ,6,0,0.,12.0,0.,12.0,0.,12.0,0.,12.0
1979-07-17 00:53:36.730 ,7,1,0.,12.0,0.,12.0,0.,12.0,0.,12.0
1979-07-17 00:53:48.730 ,7,1,0.,12.0,0.,12.0,0.,12.0,1.,12.0
1979-07-17 00:54:00.730 ,7,0,0.,12.0,0.,12.0,0.,12.0,0.,12.0
1979-07-17 00:54:12.730 ,7,0,0.,12.0,0.,12.0,0.,12.0,0.,12.0
1979-07-17 00:54:24.730 ,7,1,0.,12.0,0.,12.0,0.,12.0,0.,12.0
1979-07-17 00:54:36.730 ,7,1,0.,12.0,0.,12.0,0.,12.0,0.,12.0
1979-07-17 00:54:48.730 ,7,0,0.,12.0,0.,12.0,0.,12.0,0.,12.0
1979-07-17 00:55:00.730 ,7,0,0.,12.0,0.,12.0,0.,12.0,0.,12.0
1979-07-17 00:55:12.730 ,6,1,0.,12.0,0.,12.0,0.,12.0,0.,12.0
1979-07-17 00:55:24.730 ,6,1,0.,12.0,0.,12.0,0.,12.0,0.,12.0
1979-07-17 00:55:36.730 ,6,0,0.,12.0,0.,12.0,0.,12.0,0.,12.0
1979-07-17 00:55:48.730 ,6,0,0.,12.0,0.,12.0,0.,12.0,0.,12.0
1979-07-17 00:56:00.730 ,5,1,0.,12.0,0.,12.0,0.,12.0,0.,12.0
1979-07-17 00:56:12.730 ,5,1,0.,12.0,0.,12.0,0.,12.0,0.,12.0
1979-07-17 00:56:24.730 ,5,0,0.,12.0,0.,12.0,0.,12.0,0.,12.0
1979-07-17 00:56:36.730 ,5,0,0.,12.0,0.,12.0,0.,12.0,0.,12.0
1979-07-17 00:56:48.730 ,4,1,0.,12.0,0.,12.0,0.,12.0,0.,12.0
1979-07-17 00:57:00.730 ,4,1,0.,12.0,0.,12.0,0.,12.0,0.,12.0
1979-07-17 00:57:12.730 ,4,0,0.,12.0,0.,12.0,0.,12.0,0.,12.0
1979-07-17 00:57:24.730 ,4,0,0.,12.0,0.,12.0,0.,12.0,0.,12.0
1979-07-17 00:57:36.730 ,3,1,0.,12.0,0.,12.0,0.,12.0,0.,12.0
1979-07-17 00:57:48.730 ,3,1,1.,12.0,0.,12.0,0.,12.0,0.,12.0
1979-07-17 00:58:00.730 ,3,0,1.,12.0,0.,12.0,0.,12.0,0.,12.0
1979-07-17 00:58:12.730 ,3,0,0.,12.0,0.,12.0,0.,12.0,0.,12.0
1979-07-17 00:58:24.730 ,2,1,0.,12.0,0.,12.0,0.,12.0,0.,12.0
1979-07-17 00:58:36.730 ,2,1,0.,12.0,0.,12.0,0.,12.0,0.,12.0
1979-07-17 00:58:48.730 ,2,0,1.,12.0,0.,12.0,0.,12.0,0.,12.0
1979-07-17 00:59:00.730 ,2,0,0.,12.0,0.,12.0,0.,12.0,0.,12.0
1979-07-17 00:59:12.730 ,1,1,0.,12.0,0.,12.0,0.,12.0,0.,12.0
1979-07-17 00:59:24.730 ,1,1,0.,12.0,0.,12.0,0.,12.0,0.,12.0
1979-07-17 00:59:36.730 ,1,0,1.,12.0,0.,12.0,0.,12.0,0.,12.0
1979-07-17 00:59:48.730 ,1,0,0.,12.0,0.,12.0,0.,12.0,0.,12.0
1979-07-17 01:00:00.730 ,0,1,0.,12.0,0.,12.0,0.,12.0,0.,12.0
1979-07-17 01:00:12.730 ,0,1,0.,12.0,0.,12.0,0.,12.0,0.,12.0
1979-07-17 01:00:24.730 ,0,0,0.,12.0,0.,12.0,0.,12.0,0.,12.0
1979-07-17 01:00:36.730 ,0,0,0.,12.0,0.,12.0,0.,12.0,0.,12.0
1979-07-17 01:00:48.730 ,0,1,0.,12.0,0.,12.0,0.,12.0,0.,12.0
1979-07-17 01:01:00.730 ,0,1,0.,12.0,0.,12.0,0.,12.0,0.,12.0
1979-07-17 01:01:12.730 ,0,0,0.,12.0,0.,12.0,0.,12.0,0.,12.0
1979-07-17 01:01:24.730 ,0,0,0.,12.0,0.,12.0,0.,12.0,0.,12.0
1979-07-17 01:01:36.730 ,1,1,0.,12.0,0.,12.0,0.,12.0,0.,12.0
1979-07-17 01:01:48.730 ,1,1,0.,12.0,0.,12.0,0.,12.0,0.,12.0
1979-07-17 01:02:00.730 ,1,0,0.,12.0,0.,12.0,0.,12.0,0.,12.0
1979-07-17 01:02:12.730 ,1,0,0.,12.0,0.,12.0,0.,12.0,0.,12.0
1979-07-17 01:02:24.730 ,2,1,0.,12.0,0.,12.0,0.,12.0,0.,12.0
1979-07-17 01:02:36.730 ,2,1,0.,12.0,0.,12.0,0.,12.0,0.,12.0
1979-07-17 01:02:48.730 ,2,0,0.,12.0,0.,12.0,0.,12.0,0.,12.0
1979-07-17 01:03:00.730 ,2,0,1.,12.0,0.,12.0,0.,12.0,0.,12.0
1979-07-17 01:03:12.730 ,3,1,0.,12.0,0.,12.0,0.,12.0,0.,12.0
1979-07-17 01:03:24.730 ,3,1,0.,12.0,0.,12.0,0.,12.0,0.,12.0
1979-07-17 01:03:36.730 ,3,0,0.,12.0,0.,12.0,0.,12.0,0.,12.0
1979-07-17 01:03:48.730 ,3,0,1.,12.0,0.,12.0,0.,12.0,0.,12.0
1979-07-17 01:04:00.730 ,4,1,0.,12.0,0.,12.0,0.,12.0,0.,12.0
1979-07-17 01:04:12.730 ,4,1,1.,12.0,0.,12.0,0.,12.0,0.,12.0
1979-07-17 01:04:24.730 ,4,0,0.,12.0,0.,12.0,0.,12.0,0.,12.0
1979-07-17 01:04:36.730 ,4,0,1.,12.0,0.,12.0,0.,12.0,0.,12.0
1979-07-17 01:04:48.730 ,5,1,0.,12.0,0.,12.0,0.,12.0,0.,12.0
1979-07-17 01:05:00.730 ,5,1,1.,12.0,0.,12.0,0.,12.0,0.,12.0
1979-07-17 01:05:12.730 ,5,0,0.,12.0,0.,12.0,0.,12.0,0.,12.0
1979-07-17 01:05:24.730 ,5,0,1.,12.0,0.,12.0,0.,12.0,0.,12.0
1979-07-17 01:05:36.730 ,6,1,0.,12.0,0.,12.0,0.,12.0,0.,12.0
1979-07-17 01:05:48.730 ,6,1,0.,12.0,0.,12.0,0.,12.0,0.,12.0
1979-07-17 01:06:00.730 ,6,0,0.,12.0,0.,12.0,0.,12.0,0.,12.0
1979-07-17 01:06:12.730 ,6,0,0.,12.0,0.,12.0,0.,12.0,0.,12.0
1979-07-17 01:06:24.730 ,7,0,0.,12.0,0.,12.0,0.,12.0,0.,12.0
1979-07-17 01:06:36.730 ,7,0,0.,12.0,0.,12.0,0.,12.0,0.,12.0
1979-07-17 01:06:48.730 ,7,0,0.,12.0,0.,12.0,0.,12.0,0.,12.0
1979-07-17 01:07:00.730 ,7,0,0.,12.0,0.,12.0,0.,12.0,0.,12.0
1979-07-17 01:07:12.730 ,4,1,0.,12.0,0.,12.0,0.,12.0,0.,12.0
1979-07-17 01:07:24.730 ,4,1,0.,12.0,0.,12.0,0.,12.0,0.,12.0
1979-07-17 01:07:36.730 ,0,1,0.,12.0,0.,12.0,0.,12.0,0.,12.0
1979-07-17 01:07:48.730 ,0,1,0.,12.0,0.,12.0,0.,12.0,0.,12.0
1979-07-17 01:08:00.730 ,3,1,0.,12.0,0.,12.0,0.,12.0,0.,12.0
1979-07-17 01:08:12.730 ,3,1,0.,12.0,0.,12.0,0.,12.0,0.,12.0
1979-07-17 01:08:24.730 ,7,1,0.,12.0,0.,12.0,0.,12.0,0.,12.0
1979-07-17 01:08:36.730 ,7,1,0.,12.0,0.,12.0,0.,12.0,0.,12.0
1979-07-17 01:08:48.730 ,4,1,0.,12.0,0.,12.0,0.,12.0,0.,12.0
1979-07-17 01:09:00.730 ,4,1,0.,12.0,0.,12.0,0.,12.0,0.,12.0
1979-07-17 01:09:12.730 ,0,1,0.,12.0,0.,12.0,0.,12.0,0.,12.0
1979-07-17 01:09:24.730 ,0,1,0.,12.0,0.,12.0,0.,12.0,0.,12.0
1979-07-17 01:09:36.730 ,3,1,0.,12.0,0.,12.0,0.,12.0,0.,12.0
1979-07-17 01:09:48.730 ,3,1,0.,12.0,0.,12.0,0.,12.0,0.,12.0
1979-07-17 01:10:00.730 ,7,1,0.,12.0,0.,12.0,0.,12.0,0.,12.0
1979-07-17 01:10:12.730 ,7,1,0.,12.0,0.,12.0,0.,12.0,0.,12.0
1979-07-17 01:10:24.730 ,4,1,1.,12.0,0.,12.0,0.,12.0,0.,12.0
1979-07-17 01:10:36.730 ,4,1,0.,12.0,0.,12.0,0.,12.0,0.,12.0
1979-07-17 01:10:48.730 ,0,1,0.,12.0,0.,12.0,0.,12.0,0.,12.0
1979-07-17 01:11:00.730 ,0,1,0.,12.0,0.,12.0,0.,12.0,0.,12.0
1979-07-17 01:11:12.730 ,3,1,0.,12.0,0.,12.0,0.,12.0,0.,12.0
1979-07-17 01:11:24.730 ,3,1,1.,12.0,0.,12.0,0.,12.0,0.,12.0
1979-07-17 01:11:36.730 ,7,1,0.,12.0,0.,12.0,0.,12.0,0.,12.0
1979-07-17 01:11:48.730 ,7,1,0.,12.0,0.,12.0,0.,12.0,0.,12.0
1979-07-17 01:12:00.730 ,4,1,0.,12.0,0.,12.0,0.,12.0,0.,12.0
1979-07-17 01:12:12.730 ,4,1,0.,12.0,0.,12.0,0.,12.0,0.,12.0
1979-07-17 01:12:24.730 ,0,1,0.,12.0,0.,12.0,0.,12.0,0.,12.0
1979-07-17 01:12:36.730 ,0,1,0.,12.0,0.,12.0,0.,12.0,0.,12.0
1979-07-17 01:12:48.730 ,3,1,0.,12.0,0.,12.0,0.,12.0,0.,12.0
1979-07-17 01:13:00.730 ,3,1,0.,12.0,0.,12.0,0.,12.0,0.,12.0
1979-07-17 01:13:12.730 ,7,1,0.,12.0,0.,12.0,0.,12.0,0.,12.0
1979-07-17 01:13:24.730 ,7,1,0.,12.0,0.,12.0,0.,12.0,0.,12.0
1979-07-17 01:13:36.730 ,4,1,0.,12.0,0.,12.0,0.,12.0,0.,12.0
1979-07-17 01:13:48.730 ,4,1,0.,12.0,0.,12.0,0.,12.0,0.,12.0
1979-07-17 01:14:00.730 ,0,1,0.,12.0,0.,12.0,0.,12.0,1.,12.0
1979-07-17 01:14:12.730 ,0,1,0.,12.0,0.,12.0,0.,12.0,0.,12.0
1979-07-17 01:14:24.730 ,3,1,0.,12.0,0.,12.0,0.,12.0,0.,12.0
1979-07-17 01:14:36.730 ,3,1,0.,12.0,0.,12.0,0.,12.0,0.,12.0
1979-07-17 01:14:48.730 ,7,1,0.,12.0,0.,12.0,0.,12.0,0.,12.0
1979-07-17 01:15:00.730 ,7,1,0.,12.0,0.,12.0,0.,12.0,0.,12.0
1979-07-17 01:15:12.730 ,4,1,0.,12.0,0.,12.0,0.,12.0,0.,12.0
1979-07-17 01:15:24.730 ,4,1,0.,12.0,0.,12.0,0.,12.0,0.,12.0
1979-07-17 01:15:36.730 ,0,1,0.,12.0,0.,12.0,0.,12.0,0.,12.0
1979-07-17 01:15:48.730 ,0,1,0.,12.0,0.,12.0,0.,12.0,0.,12.0
1979-07-17 01:16:00.730 ,3,1,0.,12.0,0.,12.0,0.,12.0,0.,12.0
1979-07-17 01:16:12.730 ,3,1,1.,12.0,0.,12.0,0.,12.0,0.,12.0
1979-07-17 01:16:24.730 ,7,1,0.,12.0,0.,12.0,0.,12.0,0.,12.0
1979-07-17 01:16:36.730 ,7,1,0.,12.0,0.,12.0,0.,12.0,0.,12.0
1979-07-17 01:16:48.730 ,4,1,0.,12.0,0.,12.0,0.,12.0,0.,12.0
1979-07-17 01:17:00.730 ,4,1,0.,12.0,0.,12.0,0.,12.0,0.,12.0